Andover, NJ

12:52 PM EDT on August 18, 2017 (GMT -0400)
Andover

Weather History for K12N - May, 2014

Change the Weather History Date:

Friday, May 16, 2014

  Actual Average (KFWN) Record (KFWN)
Temperature  
Mean Temperature 62 °F -  
Max Temperature 69 °F 69 °F 86 °F (1951)
Min Temperature 55 °F 44 °F 34 °F (1966)
Degree Days  
Heating Degree Days 3    
Growing Degree Days 12 (Base 50)    
Moisture  
Dew Point 62 °F    
Average Humidity 90    
Maximum Humidity 97    
Minimum Humidity 81    
Precipitation  
Precipitation 1.19 in - - ()
Sea Level Pressure  
Sea Level Pressure 29.88 in    
Wind  
Wind Speed 7 mph (South)    
Max Wind Speed 10 mph    
Max Gust Speed 22 mph    
Averages and records for this station are not official NWS values.
T = Trace of Precipitation, MM = Missing Value Source: NWS Daily Summary

Daily Weather History Graph

Daily Weather History Graph

Search for Another Location

Airport or City:

Trip Planner

Search our weather history database for the weather conditions in past years. The results will help you decide how hot, cold, wet, or windy it might be!

Date:

Astronomy

May. 16, 2014 Rise Set
Actual Time 5:40 AM EDT 8:11 PM EDT
Civil Twilight 5:08 AM EDT 8:42 PM EDT
Nautical Twilight 4:29 AM EDT 9:21 PM EDT
Astronomical Twilight 3:46 AM EDT 10:05 PM EDT
Moon 10:15 PM EDT (5/16) 7:19 AM EDT (5/16)
Length of Visible Light 15h 33m
Length of Day
14h 30m
Waning Gibbous, 95% of the Moon is Illuminated
May 16
Waning Gibbous
May 21
Last Quarter
May 28
New
Jun 5
First Quarter
Jun 13
Full

Hourly Weather History & Observations

Time (EDT) Temp. Dew Point Humidity Pressure Visibility Wind Dir Wind Speed Gust Speed Precip Events Conditions
12:54 AM 69.1 °F 64.0 °F 84% 30.02 in - Variable 5.8 mph - N/A   Unknown
1:54 AM 68.0 °F 64.0 °F 87% 30.00 in - North - - 0.01 in   Unknown
2:54 AM 66.9 °F 64.0 °F 90% 29.98 in - South 8.1 mph - 0.01 in   Unknown
3:54 AM 66.9 °F 64.0 °F 90% 29.96 in - Variable 5.8 mph - N/A   Unknown
4:54 AM 68.0 °F 63.0 °F 84% 29.93 in - South 9.2 mph - N/A   Unknown
5:54 AM 68.0 °F 63.0 °F 84% 29.91 in - SSE 10.4 mph 20.7 mph N/A   Unknown
6:54 AM 68.0 °F 63.0 °F 84% 29.90 in - Variable 5.8 mph 16.1 mph N/A   Unknown
7:54 AM 66.9 °F 64.0 °F 90% 29.89 in - Variable 6.9 mph 18.4 mph N/A   Unknown
8:54 AM 68.0 °F 63.0 °F 84% 29.88 in - South 8.1 mph 21.9 mph N/A   Unknown
9:54 AM 69.1 °F 63.0 °F 81% 29.87 in - South 10.4 mph 20.7 mph N/A   Unknown
10:54 AM 66.9 °F 64.0 °F 90% 29.87 in - Variable 5.8 mph - 0.08 in   Unknown
11:54 AM 66.9 °F 64.9 °F 93% 29.86 in - South 6.9 mph - 0.15 in   Unknown
12:54 PM 68.0 °F 66.0 °F 93% 29.85 in - South 9.2 mph 20.7 mph 0.18 in   Unknown
1:54 PM 68.0 °F 64.9 °F 90% 29.83 in - South 8.1 mph - 0.13 in   Unknown
2:54 PM 68.0 °F 64.9 °F 90% 29.81 in - SSE 8.1 mph - 0.03 in   Unknown
3:54 PM 66.9 °F 64.9 °F 93% 29.79 in - North - - 0.05 in   Unknown
4:54 PM 68.0 °F 64.9 °F 90% 29.79 in - Variable 6.9 mph 19.6 mph 0.12 in   Unknown
5:54 PM 68.0 °F 64.9 °F 90% 29.76 in - Variable 6.9 mph - 0.03 in   Unknown
6:54 PM 62.1 °F 61.0 °F 96% 29.82 in - Variable 4.6 mph - 0.19 in   Unknown
7:54 PM 61.0 °F 60.1 °F 97% 29.84 in - WSW 4.6 mph - 0.02 in   Unknown
8:54 PM 59.0 °F 57.9 °F 96% 29.86 in - Variable 3.5 mph - 0.13 in   Unknown
9:54 PM 57.0 °F 55.0 °F 93% 29.87 in - NNW 3.5 mph - 0.04 in   Unknown
10:54 PM 55.9 °F 54.0 °F 93% 29.88 in - Calm Calm - 0.02 in   Unknown
11:54 PM 55.0 °F 54.0 °F 96% 29.89 in - Calm Calm - N/A   Unknown